Rock Springs, WY

4:00 PM MDT on September 21, 2017 (GMT -0600)
Rock Springs-Sweetwater

Weather History for KRKS - August, 2013

Change the Weather History Date:

Thursday, August 8, 2013

  Actual Average Record
Temperature  
Mean Temperature 69 °F 69 °F  
Max Temperature 81 °F 84 °F 92 °F (1958)
Min Temperature 57 °F 54 °F 45 °F (1987)
Degree Days  
Heating Degree Days 0 1  
Month to date heating degree days 0 2  
Since 1 June heating degree days 62 193  
Since 1 July heating degree days 0 26  
Cooling Degree Days 4 4  
Month to date cooling degree days 55 38  
Year to date cooling degree days 373 218  
Since 1 June cooling degree days 372 217  
Growing Degree Days 19 (Base 50)    
Moisture  
Dew Point 36 °F    
Average Humidity 35    
Maximum Humidity 55    
Minimum Humidity 15    
Precipitation  
Precipitation T in 0.02 in 0.96 in (1963)
Month to date precipitation T 0.17  
Year to date precipitation 1.70 5.33  
Sea Level Pressure  
Sea Level Pressure 29.95 in    
Wind  
Wind Speed 9 mph (ENE)    
Max Wind Speed 28 mph    
Max Gust Speed 31 mph    
Visibility 10 miles    
Events Thunderstorm    
T = Trace of Precipitation, MM = Missing Value Source: NWS Daily Summary

Daily Weather History Graph

Daily Weather History Graph

Search for Another Location

Airport or City:

Trip Planner

Search our weather history database for the weather conditions in past years. The results will help you decide how hot, cold, wet, or windy it might be!

Date:

Astronomy

Aug. 08, 2013 Rise Set
Actual Time 6:18 AM MDT 8:24 PM MDT
Civil Twilight 5:47 AM MDT 8:55 PM MDT
Nautical Twilight 5:10 AM MDT 9:32 PM MDT
Astronomical Twilight 4:29 AM MDT 10:13 PM MDT
Moon 8:10 AM MDT (8/8) 9:02 PM MDT (8/8)
Length of Visible Light 15h 07m
Length of Day
14h 06m
Waxing Crescent, 3% of the Moon is Illuminated
Aug 8
Waxing Crescent
Aug 14
First Quarter
Aug 20
Full
Aug 28
Last Quarter
Sep 5
New

Hourly Weather History & Observations

Time (MDT) Temp. Dew Point Humidity Pressure Visibility Wind Dir Wind Speed Gust Speed Precip Events Conditions
12:54 AM 66.0 °F 30.0 °F 26% 29.85 in 10.0 mi NE 11.5 mph - N/A   Clear
1:54 AM 64.0 °F 34.0 °F 33% 29.86 in 10.0 mi NE 6.9 mph - N/A   Clear
2:54 AM 64.0 °F 35.1 °F 34% 29.86 in 10.0 mi East 6.9 mph - N/A   Clear
3:54 AM 61.0 °F 39.0 °F 44% 29.87 in 10.0 mi NE 6.9 mph - N/A   Clear
4:54 AM 60.1 °F 39.0 °F 46% 29.87 in 10.0 mi ENE 8.1 mph - N/A   Clear
5:54 AM 57.9 °F 39.0 °F 49% 29.89 in 10.0 mi ENE 5.8 mph - N/A   Clear
6:54 AM 59.0 °F 39.9 °F 49% 29.91 in 10.0 mi NE 4.6 mph - N/A   Clear
7:54 AM 60.1 °F 39.9 °F 47% 29.95 in 10.0 mi NE 5.8 mph - N/A   Clear
8:54 AM 62.1 °F 41.0 °F 46% 29.96 in 10.0 mi NNE 8.1 mph - N/A   Clear
9:54 AM 64.0 °F 39.9 °F 41% 29.97 in 10.0 mi NE 5.8 mph - N/A   Clear
10:54 AM 72.0 °F 39.0 °F 30% 29.95 in 10.0 mi NNE 9.2 mph - N/A   Clear
11:54 AM 73.0 °F 36.0 °F 26% 29.94 in 10.0 mi East 10.4 mph - N/A   Clear
12:54 PM 73.0 °F 35.1 °F 25% 29.93 in 10.0 mi East 8.1 mph - N/A   Clear
1:54 PM 77.0 °F 33.1 °F 20% 29.90 in 10.0 mi SE 15.0 mph 19.6 mph N/A   Clear
2:54 PM 80.1 °F 30.0 °F 16% 29.87 in 10.0 mi East 12.7 mph - N/A   Clear
3:54 PM 80.1 °F 28.0 °F 15% 29.85 in 10.0 mi SE 4.6 mph - N/A   Clear
4:54 PM 81.0 °F 28.9 °F 15% 29.85 in 10.0 mi SSE 9.2 mph - N/A   Partly Cloudy
5:44 PM 78.8 °F 30.2 °F 17% 30.12 in 10.0 mi SW 5.8 mph - N/A Thunderstorm Clear
5:54 PM 79.0 °F 30.9 °F 17% 29.86 in 10.0 mi SSE 12.7 mph - N/A Thunderstorm Clear
6:12 PM 78.8 °F 30.2 °F 17% 30.12 in 10.0 mi SSE 9.2 mph - N/A   Clear
6:21 PM 78.8 °F 33.8 °F 20% 30.13 in 10.0 mi South 19.6 mph 23.0 mph N/A Thunderstorm Clear
6:54 PM 75.0 °F 30.0 °F 19% 29.88 in 10.0 mi South 21.9 mph - N/A Thunderstorm Mostly Cloudy
7:19 PM 71.6 °F 37.4 °F 29% 30.18 in 10.0 mi WNW 16.1 mph 27.6 mph N/A Thunderstorm Thunderstorm
7:54 PM 66.0 °F 39.9 °F 38% 29.99 in 10.0 mi WNW 16.1 mph 28.8 mph N/A   Overcast
8:54 PM 62.1 °F 44.1 °F 52% 30.01 in 10.0 mi NNW 9.2 mph - 0.00 in   Partly Cloudy
9:54 PM 61.0 °F 45.0 °F 56% 30.01 in 10.0 mi North 8.1 mph - N/A   Mostly Cloudy
10:54 PM 60.1 °F 44.1 °F 55% 30.00 in 10.0 mi NE 10.4 mph - N/A   Overcast
11:54 PM 59.0 °F 42.1 °F 53% 30.00 in 10.0 mi East 5.8 mph - N/A   Clear